H1 CPF 2 NER 2022 3 7 9 066 01 glonass135 H2 1600801 9135 41330 2022 3 7 0 0 0 2022 3 10 23 45 0 900 1 1 0 0 0 1 H9 10 0 59645 0.00000 0 14292878.506 13516621.501 -16209727.411 10 0 59645 900.00000 0 12321778.922 12675032.733 -18365615.572 10 0 59645 1800.00000 0 10058589.556 11919266.301 -20164073.167 10 0 59645 2700.00000 0 7552063.001 11296030.467 -21570169.626 10 0 59645 3600.00000 0 4860180.136 10843008.396 -22556633.012 10 0 59645 4500.00000 0 2047968.125 10587215.970 -23104375.280 10 0 59645 5400.00000 0 -814971.688 10543828.694 -23202856.227 10 0 59645 6300.00000 0 -3657123.145 10715526.547 -22850279.805 10 0 59645 7200.00000 0 -6407791.314 11092383.613 -22053619.783 10 0 59645 8100.00000 0 -8999801.950 11652306.276 -20828474.993 10 0 59645 9000.00000 0 -11372052.875 12362000.723 -19198757.632 10 0 59645 9900.00000 0 -13471812.103 13178428.258 -17196221.155 10 0 59645 10800.00000 0 -15256668.400 14050686.567 -14859837.306 10 0 59645 11700.00000 0 -16696054.554 14922237.302 -12235034.538 10 0 59645 12600.00000 0 -17772281.387 15733385.876 -9372812.789 10 0 59645 13500.00000 0 -18481041.125 16423908.905 -6328751.823 10 0 59645 14400.00000 0 -18831360.778 16935718.614 -3161932.341 10 0 59645 15300.00000 0 -18845009.074 17215451.980 66209.112 10 0 59645 16200.00000 0 -18555383.331 17216875.677 3293069.318 10 0 59645 17100.00000 0 -18005924.188 16903005.582 6456088.648 10 0 59645 18000.00000 0 -17248125.742 16247851.671 9493959.026 10 0 59645 18900.00000 0 -16339225.353 15237714.776 12347806.430 10 0 59645 19800.00000 0 -15339670.523 13871980.425 14962325.429 10 0 59645 20700.00000 0 -14310469.337 12163375.965 17286844.177 10 0 59645 21600.00000 0 -13310535.534 10137679.402 19276299.904 10 0 59645 22500.00000 0 -12394139.284 7832891.040 20892106.719 10 0 59645 23400.00000 0 -11608570.159 5297901.242 22102899.551 10 0 59645 24300.00000 0 -10992109.863 2590708.286 22885140.497 10 0 59645 25200.00000 0 -10572399.331 -223741.265 23223576.257 10 0 59645 26100.00000 0 -10365268.514 -3076001.562 23111538.005 10 0 59645 27000.00000 0 -10374078.017 -5894765.885 22551077.771 10 0 59645 27900.00000 0 -10589600.562 -8609586.521 21552938.257 10 0 59645 28800.00000 0 -10990447.930 -11153564.403 20136355.907 10 0 59645 29700.00000 0 -11544026.316 -13465897.848 18328700.045 10 0 59645 30600.00000 0 -12207980.869 -15494185.090 16164953.853 10 0 59645 31500.00000 0 -12932069.591 -17196384.965 13687046.120 10 0 59645 32400.00000 0 -13660388.358 -18542354.095 10943045.538 10 0 59645 33300.00000 0 -14333853.686 -19514896.133 7986232.312 10 0 59645 34200.00000 0 -14892838.448 -20110278.879 4874064.599 10 0 59645 35100.00000 0 -15279848.773 -20338197.356 1667059.676 10 0 59645 36000.00000 0 -15442128.066 -20221184.311 -1572388.168 10 0 59645 36900.00000 0 -15334076.804 -19793493.105 -4781229.295 10 0 59645 37800.00000 0 -14919384.273 -19099500.519 -7896995.230 10 0 59645 38700.00000 0 -14172780.450 -18191697.587 -10859024.870 10 0 59645 39600.00000 0 -13081332.469 -17128354.227 -13609655.189 10 0 59645 40500.00000 0 -11645229.428 -15970957.366 -16095352.219 10 0 59645 41400.00000 0 -9878021.179 -14781531.842 -18267759.415 10 0 59645 42300.00000 0 -7806300.149 -13619958.167 -20084642.296 10 0 59645 43200.00000 0 -5468838.805 -12541401.069 -21510710.799 10 0 59645 44100.00000 0 -2915218.476 -11593957.644 -22518303.407 10 0 59645 45000.00000 0 -204006.696 -10816624.259 -23087920.115 10 0 59645 45900.00000 0 2599441.006 -10237667.479 -23208594.499 10 0 59645 46800.00000 0 5425463.351 -9873466.855 -22878098.418 10 0 59645 47700.00000 0 8202756.367 -9727877.321 -22102976.118 10 0 59645 48600.00000 0 10861106.829 -9792136.858 -20898407.863 10 0 59645 49500.00000 0 13334082.960 -10045322.113 -19287906.352 10 0 59645 50400.00000 0 15561571.167 -10455331.633 -17302852.330 10 0 59645 51300.00000 0 17492054.284 -10980354.294 -14981878.789 10 0 59645 52200.00000 0 19084537.678 -11570760.206 -12370115.877 10 0 59645 53100.00000 0 20310044.220 -12171333.788 -9518311.392 10 0 59645 54000.00000 0 21152617.241 -12723754.429 -6481843.934 10 0 59645 54900.00000 0 21609791.094 -13169219.860 -3319647.861 10 0 59645 55800.00000 0 21692511.067 -13451101.514 -93070.986 10 0 59645 56700.00000 0 21424507.427 -13517519.806 3135312.912 10 0 59645 57600.00000 0 20841151.013 -13323730.815 6302913.824 10 0 59645 58500.00000 0 19987839.369 -12834223.716 9348334.104 10 0 59645 59400.00000 0 18917981.850 -12024440.576 12212552.754 10 0 59645 60300.00000 0 17690668.624 -10882045.857 14840062.875 10 0 59645 61200.00000 0 16368121.504 -9407691.848 17179940.610 10 0 59645 62100.00000 0 15013033.362 -7615247.165 19186825.559 10 0 59645 63000.00000 0 13685907.186 -5531477.694 20821794.362 10 0 59645 63900.00000 0 12442505.801 -3195192.045 22053111.151 10 0 59645 64800.00000 0 11331518.350 -655885.583 22856841.008 10 0 59645 65700.00000 0 10392540.629 2028062.261 23217315.002 10 0 59645 66600.00000 0 9654453.358 4791564.175 23127437.969 10 0 59645 67500.00000 0 9134265.931 7565286.091 22588833.018 10 0 59645 68400.00000 0 8836474.048 10278292.723 21611819.527 10 0 59645 69300.00000 0 8752958.337 12860769.077 20215224.301 10 0 59645 70200.00000 0 8863428.652 15246705.989 18426028.591 10 0 59645 71100.00000 0 9136395.956 17376438.887 16278856.587 10 0 59645 72000.00000 0 9530631.563 19198934.312 13815314.153 10 0 59645 72900.00000 0 9997052.828 20673728.985 11083189.495 10 0 59645 73800.00000 0 10480956.119 21772440.147 8135530.345 10 0 59645 74700.00000 0 10924502.841 22479783.521 5029615.089 10 0 59645 75600.00000 0 11269353.098 22794055.803 1825837.620 10 0 59645 76500.00000 0 11459334.863 22727061.056 -1413472.173 10 0 59645 77400.00000 0 11443034.517 22303483.827 -4625268.638 10 0 59645 78300.00000 0 11176197.703 21559735.583 -7747026.677 10 0 59645 79200.00000 0 10623837.362 20542323.520 -10717968.953 10 0 59645 80100.00000 0 9761958.092 19305811.161 -13480258.853 10 0 59645 81000.00000 0 8578822.369 17910457.667 -15980134.899 10 0 59645 81900.00000 0 7075703.777 16419636.381 -18168963.644 10 0 59645 82800.00000 0 5267094.338 14897142.412 -20004189.863 10 0 59645 83700.00000 0 3180356.306 13404503.433 -21450165.303 10 0 59645 84600.00000 0 854832.324 11998407.389 -22478839.962 10 0 59645 85500.00000 0 -1659549.137 10728355.464 -23070302.732 10 0 59646 0.00000 0 -4304114.841 9634638.763 -23213161.589 10 0 59646 900.00000 0 -7013659.147 8746722.421 -22904756.621 10 0 59646 1800.00000 0 -9718932.005 8082105.447 -22151202.470 10 0 59646 2700.00000 0 -12349304.016 7645700.864 -20967260.390 10 0 59646 3600.00000 0 -14835494.491 7429762.209 -19376042.736 10 0 59646 4500.00000 0 -17112250.893 7414357.378 -17408556.309 10 0 59646 5400.00000 0 -19120868.663 7568368.490 -15103093.775 10 0 59646 6300.00000 0 -20811447.409 7850974.426 -12504485.150 10 0 59646 7200.00000 0 -22144790.409 8213552.512 -9663224.068 10 0 59646 8100.00000 0 -23093869.386 8601918.355 -6634485.819 10 0 59646 9000.00000 0 -23644794.634 8958808.770 -3477056.191 10 0 59646 9900.00000 0 -23797251.096 9226502.673 -252191.980 10 0 59646 10800.00000 0 -23564383.435 9349469.104 2977564.818 10 0 59646 11700.00000 0 -22972135.919 9276930.549 6149596.218 10 0 59646 12600.00000 0 -22058075.721 8965233.369 9202417.461 10 0 59646 13500.00000 0 -20869749.633 8379925.335 12076863.090 10 0 59646 14400.00000 0 -19462643.453 7497452.538 14717227.244 10 0 59646 15300.00000 0 -17897829.738 6306403.962 17072336.517 10 0 59646 16200.00000 0 -16239402.229 4808250.806 19096535.220 10 0 59646 17100.00000 0 -14551803.955 3017548.615 20750564.661 10 0 59646 18000.00000 0 -12897160.192 961592.583 22002320.054 10 0 59646 18900.00000 0 -11332727.023 -1320461.078 22827471.041 10 0 59646 19800.00000 0 -9908561.327 -3778972.843 23209934.283 10 0 59646 20700.00000 0 -8665508.870 -6355641.075 23142189.154 10 0 59646 21600.00000 0 -7633593.923 -8985692.899 22625430.363 10 0 59646 22500.00000 0 -6830877.313 -11600355.508 21669554.125 10 0 59646 23400.00000 0 -6262830.536 -14129506.732 20292977.433 10 0 59646 24300.00000 0 -5922252.156 -16504395.995 18522292.945 10 0 59646 25200.00000 0 -5789730.203 -18660323.377 16391764.993 10 0 59646 26100.00000 0 -5834631.506 -20539165.651 13942675.333 10 0 59646 27000.00000 0 -6016576.629 -22091643.973 11222530.189 10 0 59646 27900.00000 0 -6287338.478 -23279238.323 8284143.040 10 0 59646 28800.00000 0 -6593084.464 -24075667.931 5184610.469 10 0 59646 29700.00000 0 -6876867.141 -24467875.021 1984200.718 10 0 59646 30600.00000 0 -7081257.313 -24456469.938 -1254823.217 10 0 59646 31500.00000 0 -7151007.108 -24055618.338 -4469422.378 10 0 59646 32400.00000 0 -7035628.920 -23292374.968 -7597017.933 10 0 59646 33300.00000 0 -6691779.484 -22205492.164 -10576719.390 10 0 59646 34200.00000 0 -6085346.561 -20843753.609 -13350519.757 10 0 59646 35100.00000 0 -5193148.364 -19263904.191 -15864433.305 10 0 59646 36000.00000 0 -4004172.394 -17528263.907 -18069552.897 10 0 59646 36900.00000 0 -2520300.146 -15702127.171 -19923005.596 10 0 59646 37800.00000 0 -756486.130 -13851057.683 -21388787.714 10 0 59646 38700.00000 0 1259617.171 -12038193.079 -22438463.106 10 0 59646 39600.00000 0 3488573.193 -10321672.806 -23051711.448 10 0 59646 40500.00000 0 5880576.170 -8752296.955 -23216716.457 10 0 59646 41400.00000 0 8377308.152 -7371513.576 -22930387.246 10 0 59646 42300.00000 0 10914160.763 -6209817.905 -22198409.262 10 0 59646 43200.00000 0 13422729.328 -5285629.183 -21035124.609 10 0 59646 44100.00000 0 15833475.690 -4604690.530 -19463244.687 10 0 59646 45000.00000 0 18078449.124 -4160015.362 -17513401.291 10 0 59646 45900.00000 0 20093952.520 -3932380.762 -15223545.228 10 0 59646 46800.00000 0 21823043.381 -3891345.411 -12638204.359 10 0 59646 47700.00000 0 23217766.033 -3996747.777 -9807615.645 10 0 59646 48600.00000 0 24241022.835 -4200620.198 -6786748.103 10 0 59646 49500.00000 0 24868007.156 -4449437.199 -3634235.595 10 0 59646 50400.00000 0 25087139.161 -4686602.521 -411240.241 10 0 59646 51300.00000 0 24900466.275 -4855069.441 2819731.570 10 0 59646 52200.00000 0 24323512.416 -4899983.491 5996037.725 10 0 59646 53100.00000 0 23384583.071 -4771235.951 9056110.091 10 0 59646 54000.00000 0 22123555.911 -4425820.287 11940642.232 10 0 59646 54900.00000 0 20590207.898 -3829892.063 14593732.481 10 0 59646 55800.00000 0 18842149.030 -2960445.384 16963960.626 10 0 59646 56700.00000 0 16942448.961 -1806534.892 19005377.988 10 0 59646 57600.00000 0 14957055.256 -369991.284 20678392.392 10 0 59646 58500.00000 0 12952110.516 1334400.637 21950531.511 10 0 59646 59400.00000 0 10991279.522 3279270.186 22797070.473 10 0 59646 60300.00000 0 9133196.993 5425561.549 23201512.000 10 0 59646 61200.00000 0 7429141.555 7723931.252 23155910.018 10 0 59646 62100.00000 0 5921032.091 10116586.064 22661030.405 10 0 59646 63000.00000 0 4639829.362 12539486.734 21726345.354 10 0 59646 63900.00000 0 3604409.236 14924827.491 20369860.779 10 0 59646 64800.00000 0 2820954.278 17203689.613 18617779.114 10 0 59646 65700.00000 0 2282889.114 19308759.613 16504002.891 10 0 59646 66600.00000 0 1971362.337 21176999.309 14069487.545 10 0 59646 67500.00000 0 1856254.796 22752156.548 11361454.882 10 0 59646 68400.00000 0 1897671.884 23987011.378 8432481.511 10 0 59646 69300.00000 0 2047856.842 24845262.966 5339479.434 10 0 59646 70200.00000 0 2253443.945 25302977.494 2142588.360 10 0 59646 71100.00000 0 2457955.710 25349535.214 -1095998.539 10 0 59646 72000.00000 0 2604437.448 24988035.967 -4313251.934 10 0 59646 72900.00000 0 2638116.408 24235145.590 -7446542.116 10 0 59646 73800.00000 0 2508971.414 23120389.260 -10434868.134 10 0 59646 74700.00000 0 2174102.657 21684921.556 -13220055.088 10 0 59646 75600.00000 0 1599799.693 19979825.236 -15747895.203 10 0 59646 76500.00000 0 763218.738 18064010.853 -17969209.585 10 0 59646 77400.00000 0 -346402.908 16001806.258 -19840809.232 10 0 59646 78300.00000 0 -1727047.636 13860337.898 -21326336.389 10 0 59646 79200.00000 0 -3363763.807 11706814.380 -22396969.873 10 0 59646 80100.00000 0 -5229064.595 9605826.534 -23031980.958 10 0 59646 81000.00000 0 -7283863.105 7616777.007 -23219129.627 10 0 59646 81900.00000 0 -9478904.894 5791546.488 -22954894.206 10 0 59646 82800.00000 0 -11756638.132 4172493.389 -22244530.687 10 0 59646 83700.00000 0 -14053443.442 2790869.317 -21101961.375 10 0 59646 84600.00000 0 -16302130.557 1665715.039 -19549495.648 10 0 59646 85500.00000 0 -18434597.793 803281.344 -17617388.812 10 0 59647 0.00000 0 -20384543.590 196997.142 -15343248.206 10 0 59647 900.00000 0 -22090118.434 -172016.109 -12771297.028 10 0 59647 1800.00000 0 -23496404.344 -333906.272 -9951513.477 10 0 59647 2700.00000 0 -24557622.521 -328575.083 -6938657.891 10 0 59647 3600.00000 0 -25238974.884 -203749.670 -3791209.728 10 0 59647 4500.00000 0 -25518044.243 -12723.706 -570233.921 10 0 59647 5400.00000 0 -25385695.084 188135.815 2661801.291 10 0 59647 6300.00000 0 -24846437.898 342010.489 5842232.234 10 0 59647 7200.00000 0 -23918242.347 394270.199 8909409.980 10 0 59647 8100.00000 0 -22631807.538 295019.043 11803889.688 10 0 59647 9000.00000 0 -21029320.133 1440.091 14469576.393 10 0 59647 9900.00000 0 -19162752.268 -520159.976 16854805.458 10 0 59647 10800.00000 0 -17091770.147 -1292692.623 18913337.386 10 0 59647 11700.00000 0 -14881340.133 -2327085.822 20605248.410 10 0 59647 12600.00000 0 -12599131.549 -3621590.147 21897700.218 10 0 59647 13500.00000 0 -10312823.513 -5161622.790 22765574.586 10 0 59647 14400.00000 0 -8087427.000 -6920157.405 23191961.069 10 0 59647 15300.00000 0 -5982732.648 -8858645.091 23168488.529 10 0 59647 16200.00000 0 -4050989.556 -10928429.925 22695494.037 10 0 59647 17100.00000 0 -2334910.856 -13072601.871 21782025.474 10 0 59647 18000.00000 0 -866088.544 -15228211.574 20445677.091 10 0 59647 18900.00000 0 336116.829 -17328756.289 18712260.253 10 0 59647 19800.00000 0 1265165.544 -19306834.501 16615314.594 10 0 59647 20700.00000 0 1927382.602 -21096859.168 14195467.889 10 0 59647 21600.00000 0 2341454.392 -22637716.564 11499655.954 10 0 59647 22500.00000 0 2537399.343 -23875259.310 8580216.736 10 0 59647 23400.00000 0 2555056.040 -24764528.554 5493875.680 10 0 59647 24300.00000 0 2442152.926 -25271611.227 2300641.811 10 0 59647 25200.00000 0 2252041.711 -25375053.217 -937363.836 10 0 59647 26100.00000 0 2041191.208 -25066768.023 -4157123.996 10 0 59647 27000.00000 0 1866548.822 -24352401.545 -7295960.642 10 0 59647 27900.00000 0 1782882.843 -23251136.982 -10292765.041 10 0 59647 28800.00000 0 1840219.490 -21794947.649 -13089197.151 10 0 59647 29700.00000 0 2081484.819 -20027328.994 -15630829.957 10 0 59647 30600.00000 0 2540452.711 -18001563.304 -17868215.569 10 0 59647 31500.00000 0 3240086.940 -15778590.503 -19757851.558 10 0 59647 32400.00000 0 4191348.433 -13424574.904 -21263028.511 10 0 59647 33300.00000 0 5392518.811 -11008270.387 -22354542.291 10 0 59647 34200.00000 0 6829069.279 -8598294.745 -23011257.478 10 0 59647 35100.00000 0 8474080.756 -6260427.216 -23220511.593 10 0 59647 36000.00000 0 10289197.849 -4055041.824 -22978353.019 10 0 59647 36900.00000 0 12226076.789 -2034783.080 -22289608.704 10 0 59647 37800.00000 0 14228266.767 -242579.950 -21167781.150 10 0 59647 38700.00000 0 16233446.096 1289920.491 -19634777.304 10 0 59647 39600.00000 0 18175919.763 2543435.966 -17720475.175 10 0 59647 40500.00000 0 19989274.158 3511605.213 -15462136.968 10 0 59647 41400.00000 0 21609078.304 4200996.281 -12903680.369 10 0 59647 42300.00000 0 22975518.919 4630568.527 -10094822.316 10 0 59647 43200.00000 0 24035859.538 4830612.818 -7090111.916 10 0 59647 44100.00000 0 24746621.256 4841216.160 -3947871.285 10 0 59647 45000.00000 0 25075394.263 4710316.694 -729064.918 10 0 59647 45900.00000 0 25002204.807 4491432.107 2503880.557 10 0 59647 46800.00000 0 24520380.797 4241157.963 5688283.439 10 0 59647 47700.00000 0 23636880.111 4016541.925 8762417.512 10 0 59647 48600.00000 0 22372068.133 3872444.862 11666702.879 10 0 59647 49500.00000 0 20758953.855 3859000.219 14344854.396 10 0 59647 50400.00000 0 18841916.346 4019278.732 16744965.830 10 0 59647 51300.00000 0 16674974.437 4387256.884 18820509.360 10 0 59647 52200.00000 0 14319671.172 4986174.780 20531231.757 10 0 59647 53100.00000 0 11842660.468 5827352.834 21843930.471 10 0 59647 54000.00000 0 9313095.461 6909517.638 22733095.269 10 0 59647 54900.00000 0 6799926.081 8218666.309 23181403.452 10 0 59647 55800.00000 0 4369217.146 9728476.312 23180059.280 10 0 59647 56700.00000 0 2081597.328 11401245.179 22728970.998 10 0 59647 57600.00000 0 -10055.968 13189322.646 21836761.660 10 0 59647 58500.00000 0 -1862600.288 15036977.045 20520612.857 10 0 59647 59400.00000 0 -3444198.448 16882619.643 18805943.428 10 0 59647 60300.00000 0 -4735410.469 18661295.357 16725928.247 10 0 59647 61200.00000 0 -5729761.730 20307336.606 14320865.226 10 0 59647 62100.00000 0 -6433763.783 21757069.774 11637401.720 10 0 59647 63000.00000 0 -6866387.044 22951460.822 8727634.335 10 0 59647 63900.00000 0 -7058007.714 23838588.672 5648099.132 10 0 59647 64800.00000 0 -7048873.613 24375841.599 2458671.519 10 0 59647 65700.00000 0 -6887154.171 24531743.154 -778602.584 10 0 59647 66600.00000 0 -6626657.720 24287329.388 -4000720.960 10 0 59647 67500.00000 0 -6324313.745 23637018.171 -7144960.205 10 0 59647 68400.00000 0 -6037527.889 22588933.041 -10150106.608 10 0 59647 69300.00000 0 -5821523.120 21164666.965 -12957657.609 10 0 59647 70200.00000 0 -5726781.050 19398495.506 -15512969.340 10 0 59647 71100.00000 0 -5796693.093 17336072.247 -17766327.022 10 0 59647 72000.00000 0 -6065522.019 15032661.383 -19673916.619 10 0 59647 72900.00000 0 -6556761.037 12550981.903 -21198678.579 10 0 59647 73800.00000 0 -7281960.414 9958753.979 -22311027.042 10 0 59647 74700.00000 0 -8240071.544 7326050.598 -22989420.797 10 0 59647 75600.00000 0 -9417336.353 4722565.156 -23220775.495 10 0 59647 76500.00000 0 -10787726.767 2214908.883 -23000709.785 10 0 59647 77400.00000 0 -12313915.730 -135949.617 -22333621.388 10 0 59647 78300.00000 0 -13948738.931 -2276996.913 -21232592.391 10 0 59647 79200.00000 0 -15637085.903 -4165144.248 -19719126.260 10 0 59647 80100.00000 0 -17318141.159 -5768773.402 -17822722.238 10 0 59647 81000.00000 0 -18927881.499 -7068796.288 -15580295.778 10 0 59647 81900.00000 0 -20401725.046 -8059186.024 -13035456.510 10 0 59647 82800.00000 0 -21677221.112 -8746959.299 -10237657.932 10 0 59647 83700.00000 0 -22696668.495 -9151612.779 -7241235.403 10 0 59647 84600.00000 0 -23409552.738 -9304039.088 -4104351.073 10 0 59647 85500.00000 0 -23774700.470 -9244969.473 -887866.316 10 0 59648 0.00000 0 -23762060.836 -9023010.047 2345836.287 10 0 59648 900.00000 0 -23354039.518 -8692355.156 5534060.358 10 0 59648 1800.00000 0 -22546329.699 -8310275.203 8615004.856 10 0 59648 2700.00000 0 -21348205.212 -7934484.821 11528957.568 10 0 59648 3600.00000 0 -19782263.407 -7620502.721 14219445.816 10 0 59648 4500.00000 0 -17883628.286 -7419114.340 16634324.247 10 0 59648 5400.00000 0 -15698646.647 -7374044.078 18726778.948 10 0 59648 6300.00000 0 -13283130.889 -7519935.010 20456229.132 10 0 59648 7200.00000 0 -10700220.795 -7880721.086 21789109.520 10 0 59648 8100.00000 0 -8017952.155 -8468460.503 22699518.952 10 0 59648 9000.00000 0 -5306632.041 -9282679.812 23169723.115 10 0 59648 9900.00000 0 -2636128.601 -10310257.134 23190501.880 10 0 59648 10800.00000 0 -73186.606 -11525850.640 22761334.495 10 0 59648 11700.00000 0 2321120.918 -12892855.786 21890418.679 10 0 59648 12600.00000 0 4493699.987 -14364852.778 20594522.562 10 0 59648 13500.00000 0 6401406.762 -15887485.267 18898671.400 10 0 59648 14400.00000 0 8012600.910 -17400692.993 16835674.006 10 0 59648 15300.00000 0 9308216.747 -18841205.906 14445496.898 10 0 59648 16200.00000 0 10282307.576 -20145195.855 11774497.194 10 0 59648 17100.00000 0 10942040.612 -21250974.768 8874528.164 10 0 59648 18000.00000 0 11307142.769 -22101625.646 5801934.263 10 0 59648 18900.00000 0 11408820.861 -22647454.911 2616454.891 10 0 59648 19800.00000 0 11288202.222 -22848161.907 -619941.684 10 0 59648 20700.00000 0 10994362.086 -22674632.629 -3844270.915 10 0 59648 21600.00000 0 10582022.074 -22110280.686 -6993766.667 10 0 59648 22500.00000 0 10109018.268 -21151877.655 -10007112.915 10 0 59648 23400.00000 0 9633647.301 -19809836.689 -12825647.207 10 0 59648 24300.00000 0 9212004.118 -18107936.526 -15394511.380 10 0 59648 25200.00000 0 8895425.381 -16082496.828 -17663726.206 10 0 59648 26100.00000 0 8728147.799 -13781039.306 -19589168.310 10 0 59648 27000.00000 0 8745281.292 -11260490.753 -21133430.022 10 0 59648 27900.00000 0 8971183.198 -8585003.342 -22266545.462 10 0 59648 28800.00000 0 9418302.466 -5823483.598 -22966568.983 10 0 59648 29700.00000 0 10086542.609 -3046933.282 -23219995.308 10 0 59648 30600.00000 0 10963170.118 -325713.003 -23022013.906 10 0 59648 31500.00000 0 12023271.889 2273157.713 -22376593.427 10 0 59648 32400.00000 0 13230742.114 4688552.179 -21296395.328 10 0 59648 33300.00000 0 14539756.824 6867534.909 -19802519.023 10 0 59648 34200.00000 0 15896673.890 8767312.154 -17924084.075 10 0 59648 35100.00000 0 17242278.488 10356754.993 -15697657.925 10 0 59648 36000.00000 0 18514279.730 11617433.294 -13166540.526 10 0 59648 36900.00000 0 19649953.579 12544119.266 -10379919.958 10 0 59648 37800.00000 0 20588821.227 13144741.569 -7391915.495 10 0 59648 38700.00000 0 21275250.594 13439793.814 -4260526.668 10 0 59648 39600.00000 0 21660871.887 13461223.975 -1046508.797 10 0 59648 40500.00000 0 21706705.959 13250852.878 2187803.269 10 0 59648 41400.00000 0 21384916.266 12858389.480 5379700.497 10 0 59648 42300.00000 0 20680110.929 12339127.289 8467310.793 10 0 59648 43200.00000 0 19590140.270 11751419.490 11390792.705 10 0 59648 44100.00000 0 18126356.111 11154039.315 14093488.937 10 0 59648 45000.00000 0 16313321.614 10603536.807 16523017.704 10 0 59648 45900.00000 0 14187983.112 10151703.050 18632281.440 10 0 59648 46800.00000 0 11798337.604 9843248.307 20380373.945 10 0 59648 47700.00000 0 9201650.412 9713791.466 21733369.044 10 0 59648 48600.00000 0 6462295.900 9788245.183 22664976.130 10 0 59648 49500.00000 0 3649309.605 10079664.672 23157050.366 10 0 59648 50400.00000 0 833752.088 10588608.887 23199947.889 10 0 59648 51300.00000 0 -1914007.528 11303041.620 22792719.128 10 0 59648 52200.00000 0 -4526976.880 12198777.725 21943136.137 10 0 59648 53100.00000 0 -6944084.130 13240456.963 20667552.725 10 0 59648 54000.00000 0 -9112475.389 14383006.008 18990599.207 10 0 59648 54900.00000 0 -10989470.886 15573528.594 16944716.514 10 0 59648 55800.00000 0 -12544098.697 16753545.546 14569537.562 10 0 59648 56700.00000 0 -13758142.233 17861491.424 11911126.731 10 0 59648 57600.00000 0 -14626657.756 18835363.169 9021091.244 10 0 59648 58500.00000 0 -15157940.172 19615409.095 5955581.121 10 0 59648 59400.00000 0 -15372938.752 20146744.530 2774196.858 10 0 59648 60300.00000 0 -15304147.538 20381782.707 -461173.828 10 0 59648 61200.00000 0 -14994017.658 20282376.986 -3687566.956 10 0 59648 62100.00000 0 -14492959.370 19821582.626 -6842176.511 10 0 59648 63000.00000 0 -13857019.199 18984962.164 -9863586.909 10 0 59648 63900.00000 0 -13145331.570 17771377.951 -12692978.420 10 0 59648 64800.00000 0 -12417453.951 16193237.246 -15275280.995 10 0 59648 65700.00000 0 -11730699.435 14276178.536 -17560253.134 10 0 59648 66600.00000 0 -11137580.638 12058211.700 -19503463.993 10 0 59648 67500.00000 0 -10683473.792 9588347.718 -21067159.356 10 0 59648 68400.00000 0 -10404602.209 6924775.181 -22220994.569 10 0 59648 69300.00000 0 -10326424.438 4132659.924 -22942620.451 10 0 59648 70200.00000 0 -10462494.965 1281659.629 -23218111.355 10 0 59648 71100.00000 0 -10813845.112 -1556743.045 -23042227.757 10 0 59648 72000.00000 0 -11368909.625 -4311977.880 -22418509.032 10 0 59648 72900.00000 0 -12104001.393 -6917081.691 -21359195.402 10 0 59648 73800.00000 0 -12984313.666 -9311238.757 -19884981.224 10 0 59648 74700.00000 0 -13965407.004 -11442062.385 -18024604.982 10 0 59648 75600.00000 0 -14995117.914 -13267524.033 -15814284.365 10 0 59648 76500.00000 0 -16015808.566 -14757451.211 -13297007.623 10 0 59648 77400.00000 0 -16966862.727 -15894533.366 -10521695.178 10 0 59648 78300.00000 0 -17787322.816 -16674795.619 -7542247.823 10 0 59648 79200.00000 0 -18418557.177 -17107522.366 -4416499.973 10 0 59648 80100.00000 0 -18806845.377 -17214635.647 -1205098.332 10 0 59648 81000.00000 0 -18905772.914 -17029555.937 2029672.305 10 0 59648 81900.00000 0 -18678334.644 -16595594.501 5225093.492 10 0 59648 82800.00000 0 -18098658.552 -15963945.850 8319224.477 10 0 59648 83700.00000 0 -17153277.328 -15191365.441 11252097.255 10 0 59648 84600.00000 0 -15841894.100 -14337630.608 13966872.546 10 0 59648 85500.00000 0 -14177609.757 -13462891.604 16410934.658 99